Showing default

TIANZHOU 8, 61983

Orbit data source: Space-Track

TIANZHOU 8, 61983 is a payload satellite owned by ZZHGB (CN) in LEO that was launched on Fri, 15 Nov 2024 UTC via a CHANG ZHENG 7 launch vehicle from the Wenchang Satellite Launch Center (WSC). Payloads include a variety of satellites, spacecraft, and rockets equipped with specific instruments for various scientific and technological missions. These include communications satellites like Starlink; space stations such as the ISS; scientific satellites like the Hubble; Earth observation satellites from companies like Planet Labs, Umbra, and HawkEye 360; GPS; miniature CubeSats for education and research; and military/defense satellites.

Loading next visibility...
TIANZHOU 8 details
Identifier
61983, 2024-211A
Orbit
LEO
Last TLE update22 hours ago
Origin
Flag of CNZZHGB (CN / PRC)
ManufacturerCAST
MissionOperational spacecraft
Bus & MotorTIANZHOU, Unknown motor
Mass13,200 kg wet, 6,000 kg dry
Launch date (UTC)
2024-11-15 (6 days ago)
Launch vehicle
CHANG ZHENG 7
Launch site
Wenchang Satellite Launch Center (WSC)
Object type
Payload
Rocket body
Debris
Shape & HBRUnknown
Radar Cross SectionRCS unknown

Expand to show TLE details & history

TLE from 22 hours ago
0 TIANZHOU 8
1 61983U 24211A   24325.35088087  .00036371  00000-0  45831-3 0  9996
2 61983  41.4657 210.8559 0002795 333.6468  26.4228 15.58884123203523
Epoch: 2024-11-20T08:25Z
Definitive object data (Epoch: 2024-11-20T08:25:16.107Z)
Latitude0.00002°
Longitude24.69059°
Altitude388.791 km
Speed7.68 km/s
True Right ascension14h 03m 25s
True Declination0° 00' 00"
Sunlit
Object was in daylight at TLE epoch
Visualization TLE readout
Latitude39.88686°
Longitude128.99859°
Altitude394.019 km
Speed7.679 km/s
Apparent Right ascension18h 19m 37s
Apparent Declination1° 54' 08"
Sunlit
Object is in daylight
Visualization observer readout
Local Sidereal Time03:26:14
Azimuth305.638° NW
Elevation-32.423°
Doppler factor1
Orbital elements
Apogee altitude395.01 km
Perigee altitude391.225 km
Semi-major axis6,771.254 km
Eccentricity0.0002795
Inclination41.4657°
RAAN210.8559°
Arg. of periapsis333.6468°
True anomaly26.43706°
Mean anomaly26.4228°
Eccentric anomaly26.42993°
Mean motion3.89529 °/min
BSTAR0.00045831
Orbital period92.42 mins
Loading maneuver chart data...
Loading historical data...
Loading historical data...
Loading historical data...
Loading historical data...
Loading historical data...
Loading historical data...
Loading historical data...
Other satellites on launch #211 in the year 2024 (2024-11-15 UTC)

TIANZHOU 8 Visibility forecast

Observer location: undefined°, undefined

Span
Click to sort rows by Start time (UTC) header in descending order
Start Az.
Max El. time (UTC)
Max El. Az.
Max El.
End time (UTC)
End Az.
5 mins2024-11-21 20:00:42.395Z226.829° WSW2024-11-21 20:03:42.395Z139.808° SSE32.821°2024-11-21 20:05:42.395Z89.623° E
4 mins2024-11-21 21:38:42.395Z273.656° WNW2024-11-21 21:40:42.395Z43.377° NE41.104°2024-11-21 21:42:42.395Z75.922° E
4 mins2024-11-21 23:15:42.395Z285.827° WNW2024-11-21 23:17:42.395Z67.498° ENE43.093°2024-11-21 23:19:42.395Z96.037° ESE
4 mins2024-11-22 00:52:42.395Z255.383° W2024-11-22 00:54:42.395Z187.865° SSW26.724°2024-11-22 00:56:42.395Z145.009° SSE
|